The Dalles, WA

8:58 PM PDT on May 22, 2017 (GMT -0700)
Columbia Gorge Regional-The Dalles

Weather History for KDLS - February, 2013

Change the Weather History Date:

Friday, February 15, 2013

  Actual Average Record
Temperature  
Mean Temperature 44 °F -  
Max Temperature 57 °F 48 °F 65 °F (1982)
Min Temperature 30 °F 33 °F 9 °F (1956)
Degree Days  
Heating Degree Days 22    
Moisture  
Dew Point 34 °F    
Average Humidity 82    
Maximum Humidity 96    
Minimum Humidity 51    
Precipitation  
Precipitation 0.00 in - - ()
Sea Level Pressure  
Sea Level Pressure 30.45 in    
Wind  
Wind Speed 2 mph (SE)    
Max Wind Speed 7 mph    
Max Gust Speed -    
Visibility 10 miles    
Events      
Averages and records for this station are not official NWS values.
T = Trace of Precipitation, MM = Missing Value Source: NWS Daily Summary

Daily Weather History Graph

Daily Weather History Graph

Search for Another Location

Airport or City:

Trip Planner

Search our weather history database for the weather conditions in past years. The results will help you decide how hot, cold, wet, or windy it might be!

Date:

Astronomy

Feb. 15, 2013 Rise Set
Actual Time 7:06 AM PST 5:32 PM PST
Civil Twilight 6:35 AM PST 6:02 PM PST
Nautical Twilight 6:00 AM PST 6:37 PM PST
Astronomical Twilight 5:26 AM PST 7:11 PM PST
Moon 9:25 AM PST (2/15) 11:59 PM PST (2/15)
Length of Visible Light 11h 27m
Length of Day
10h 26m
Waxing Crescent, 31% of the Moon is Illuminated
Feb 15
Waxing Crescent
Feb 17
First Quarter
Feb 25
Full
Mar 4
Last Quarter
Mar 11
New

Hourly Weather History & Observations

Time (PST) Temp. Windchill Dew Point Humidity Pressure Visibility Wind Dir Wind Speed Gust Speed Precip Events Conditions
12:53 AM 37.0 °F 34.5 °F 34.0 °F 89% 30.54 in 10.0 mi North 3.5 mph - N/A   Clear
1:53 AM 35.1 °F 31.0 °F 32.0 °F 89% 30.55 in 10.0 mi East 4.6 mph - N/A   Clear
2:53 AM 34.0 °F 31.0 °F 30.9 °F 89% 30.54 in 10.0 mi East 3.5 mph - N/A   Clear
3:53 AM 33.1 °F - 30.0 °F 89% 30.53 in 10.0 mi Calm Calm - N/A   Clear
4:53 AM 32.0 °F - 30.0 °F 92% 30.53 in 10.0 mi Calm Calm - N/A   Clear
5:53 AM 30.0 °F 26.5 °F 28.0 °F 92% 30.53 in 10.0 mi SE 3.5 mph - N/A   Clear
6:48 AM 30.2 °F - 28.4 °F 93% 30.52 in 10.0 mi Calm Calm - N/A   Partly Cloudy
6:53 AM 30.0 °F - 28.0 °F 92% 30.53 in 10.0 mi Calm Calm - N/A   Partly Cloudy
7:32 AM 30.2 °F 25.4 °F 28.4 °F 93% 30.53 in 10.0 mi ESE 4.6 mph - N/A   Mostly Cloudy
7:53 AM 32.0 °F - 30.9 °F 96% 30.54 in 10.0 mi Calm Calm - N/A   Overcast
8:00 AM 32.0 °F - 30.2 °F 93% 30.53 in 10.0 mi Calm Calm - N/A   Overcast
8:27 AM 33.8 °F 30.8 °F 32.0 °F 93% 30.53 in 10.0 mi WSW 3.5 mph - N/A   Overcast
8:53 AM 36.0 °F - 33.1 °F 89% 30.54 in 10.0 mi Calm Calm - N/A   Overcast
9:53 AM 37.9 °F - 36.0 °F 93% 30.54 in 10.0 mi Calm Calm - N/A   Overcast
10:35 AM 39.2 °F 37.0 °F 35.6 °F 87% 30.52 in 10.0 mi South 3.5 mph - N/A   Scattered Clouds
10:53 AM 42.1 °F 40.2 °F 36.0 °F 79% 30.53 in 10.0 mi Variable 3.5 mph - N/A   Clear
11:53 AM 45.0 °F - 37.9 °F 76% 30.50 in 10.0 mi Calm Calm - N/A   Clear
12:53 PM 48.9 °F - 39.0 °F 69% 30.45 in 10.0 mi Calm Calm - N/A   Clear
1:53 PM 53.1 °F - 39.9 °F 61% 30.40 in 10.0 mi Calm Calm - N/A   Clear
2:53 PM 57.0 °F - 39.9 °F 53% 30.35 in 10.0 mi Calm Calm - N/A   Clear
3:53 PM 57.0 °F - 39.0 °F 51% 30.33 in 10.0 mi ESE 3.5 mph - N/A   Clear
4:53 PM 55.0 °F - 39.0 °F 55% 30.31 in 10.0 mi Calm Calm - N/A   Clear
5:53 PM 48.9 °F - 37.9 °F 66% 30.30 in 10.0 mi ESE 4.6 mph - N/A   Clear
6:53 PM 46.9 °F - 37.9 °F 71% 30.30 in 10.0 mi Calm Calm - N/A   Clear
7:53 PM 43.0 °F 41.3 °F 36.0 °F 76% 30.30 in 10.0 mi WSW 3.5 mph - N/A   Clear
8:53 PM 39.0 °F - 34.0 °F 82% 30.30 in 10.0 mi Calm Calm - N/A   Clear
9:53 PM 39.0 °F - 34.0 °F 82% 30.30 in 10.0 mi Calm Calm - N/A   Clear
10:53 PM 37.0 °F - 33.1 °F 86% 30.30 in 10.0 mi Calm Calm - N/A   Clear
11:53 PM 35.1 °F 29.3 °F 32.0 °F 89% 30.28 in 10.0 mi SE 6.9 mph - N/A   Clear